User: anonymous   Login
Location: Unspecified
(0.0000°N, 0.0000°E)
Time: 19:13:29
(UTC+00:00)
Language:

STARLINK-36741 - Orbit

View from above orbital plane
View from above orbital plane
View from above satellite
View from above satellite

Ground track
Ground track

The orbit is defined by the following mean orbital elements,

1 67727U          26145.61877194 +.00000000 +00000-0 +11187-2 0 00003
2 67727  97.2847 199.1067 0001166  75.4113 284.7259 15.33478389    04
Epoch (UTC): 25 May 2026 14:51:01
Eccentricity: 0.0001166
inclination: 97.2847°
perigee height: 465 km
apogee height: 466 km
right ascension of ascending node: 199.1067°
argument of perigee: 75.4113°
revolutions per day: 15.33478389
mean anomaly at epoch: 284.7259°

The dashed part of the orbit path shows where the satellite is in the earth's shadow,  

DLR